sat.trackr.live / text

‹ back to catalog

UNISAT-6

NORAD 40012 · 2014-033C

PAYLOAD ACTIVE UNKNOWN

§ Identity

Operator
Country
IT
Launch date
2014-06-19
Launch site
DLS
Launch vehicle
Mass (kg)
RCS (m²)
0.26

Purposes: comms

External: N2YO · Heavens-Above · Gunter

§ Orbital elements

Epoch: 2026-09-20T04:34:00.829632Z

Period
96.73 min
Inclination
97.8006°
Eccentricity
0.0045888
Mean motion
14.88647709 rev/d
Perigee alt
570.1 km
Apogee alt
634.2 km
Semi-major
6,980.3 km
B*
1.9161e-4
RAAN
54.3314°
Arg perigee
114.5582°
Mean anomaly
246.0428°
Rev number
66,029

§ Raw data

UNISAT-61 40012U 14033C   26263.19028738  .00001765  00000+0  19161-3 0  99942 40012  97.8006  54.3314 0045888 114.5582 246.0428 14.88647709660291

JSON: /api/v1/satellites/40012 · /tle

For live sub-satellite position, see the globe view (requires WebGL).

§ Visibility from observer

Set your observer location to see the next 7 days of passes ≥ 10°. The values pass through the URL so the page stays shareable.

No JS? Fill the form by hand. The geolocation button needs JavaScript.

§ Radio — SatNOGS DB

ModeDescriptionDownlinkUplink
FSK 9k6 FSK TLM 437.422 MHz

1 transmitter · refreshed weekly from db.satnogs.org